TimeEST,TemperatureF,Dew PointF,Humidity,Sea Level PressureIn,VisibilityMPH,Wind Direction,Wind SpeedMPH,Gust SpeedMPH,PrecipitationIn,Events,Conditions,WindDirDegrees,DateUTC
12:15 AM,46.6,46.0,98,29.76,0.2,SSE,5.8,-,0.01,Rain,Rain,160,2014-01-06 05:15:00
12:35 AM,49.3,48.6,97,29.75,0.5,South,6.9,-,0.01,,Drizzle,170,2014-01-06 05:35:00
12:55 AM,50.4,49.8,98,29.72,1.2,South,8.1,-,0.05,Rain,Light Rain,170,2014-01-06 05:55:00
1:15 AM,51.1,50.5,98,29.70,1.8,South,4.6,-,0.02,Rain,Rain,170,2014-01-06 06:15:00
1:35 AM,51.8,51.1,97,29.69,2.5,South,6.9,-,0.02,,Drizzle,180,2014-01-06 06:35:00
1:55 AM,51.8,51.3,98,29.68,2.0,South,6.9,-,0.02,,Overcast,180,2014-01-06 06:55:00
2:15 AM,52.7,52.2,98,29.68,0.8,South,8.1,-,N/A,,Overcast,190,2014-01-06 07:15:00
2:35 AM,53.8,53.2,98,29.66,4.0,South,9.2,-,N/A,,Overcast,190,2014-01-06 07:35:00
2:55 AM,54.7,54.1,98,29.65,7.0,SSW,8.1,-,N/A,,Overcast,210,2014-01-06 07:55:00
4:15 AM,57.0,56.3,97,29.58,7.0,SSW,8.1,-,N/A,,Overcast,200,2014-01-06 09:15:00
4:35 AM,57.2,56.5,97,29.57,7.0,SSW,4.6,-,N/A,,Overcast,210,2014-01-06 09:35:00
4:55 AM,57.4,56.7,97,29.55,10.0,SSW,5.8,-,N/A,,Overcast,200,2014-01-06 09:55:00
5:15 AM,57.6,56.8,97,29.54,10.0,South,8.1,-,N/A,,Overcast,190,2014-01-06 10:15:00
5:35 AM,58.1,57.4,97,29.54,10.0,SSW,9.2,-,N/A,,Overcast,200,2014-01-06 10:35:00
5:55 AM,59.2,58.3,97,29.52,10.0,South,10.4,-,N/A,,Overcast,190,2014-01-06 10:55:00
6:15 AM,58.5,57.6,97,29.50,10.0,South,9.2,-,N/A,,Overcast,190,2014-01-06 11:15:00
6:35 AM,58.3,57.4,97,29.48,10.0,South,9.2,-,N/A,,Overcast,180,2014-01-06 11:35:00
6:55 AM,58.1,57.2,97,29.47,10.0,South,11.5,-,N/A,,Overcast,190,2014-01-06 11:55:00
7:15 AM,58.1,57.2,97,29.46,10.0,South,9.2,16.1,N/A,,Overcast,190,2014-01-06 12:15:00
7:35 AM,58.1,57.2,97,29.46,7.0,SSW,11.5,17.3,0.01,Rain,Rain,200,2014-01-06 12:35:00
7:55 AM,58.3,57.2,96,29.45,5.0,SSW,11.5,18.4,0.02,Rain,Light Rain,200,2014-01-06 12:55:00
8:15 AM,59.4,58.1,96,29.43,5.0,SSW,12.7,-,0.01,Rain,Light Rain,200,2014-01-06 13:15:00
8:35 AM,59.0,57.6,95,29.42,4.0,SSW,8.1,-,0.02,Rain,Rain,200,2014-01-06 13:35:00
8:55 AM,49.5,47.5,93,29.48,1.5,WNW,26.5,41.4,0.15,Rain,Light Rain,300,2014-01-06 13:55:00
9:15 AM,48.0,46.4,94,29.50,4.0,WNW,18.4,26.5,0.01,Rain,Light Rain,290,2014-01-06 14:15:00
9:35 AM,47.5,45.7,93,29.52,4.0,WNW,18.4,26.5,0.02,Rain,Light Rain,290,2014-01-06 14:35:00
9:55 AM,46.6,44.6,93,29.53,3.0,WNW,10.4,20.7,0.04,Rain,Rain,290,2014-01-06 14:55:00
10:15 AM,46.0,44.2,93,29.52,5.0,West,10.4,-,0.01,Rain,Light Rain,280,2014-01-06 15:15:00
10:35 AM,46.0,43.9,92,29.51,5.0,West,9.2,-,0.01,,Mostly Cloudy,280,2014-01-06 15:35:00
10:55 AM,46.4,43.7,90,29.50,7.0,West,8.1,-,0.01,,Scattered Clouds,280,2014-01-06 15:55:00
11:15 AM,47.1,43.0,86,29.49,10.0,West,10.4,16.1,N/A,,Mostly Cloudy,280,2014-01-06 16:15:00
11:35 AM,47.3,42.1,82,29.50,10.0,West,10.4,18.4,N/A,,Overcast,280,2014-01-06 16:35:00
11:55 AM,46.6,41.9,84,29.50,10.0,West,12.7,18.4,N/A,,Light Drizzle,280,2014-01-06 16:55:00
12:15 PM,44.6,36.1,72,29.51,10.0,WNW,18.4,32.2,N/A,,Overcast,290,2014-01-06 17:15:00
12:35 PM,43.0,36.3,77,29.50,10.0,WNW,16.1,23.0,N/A,,Light Drizzle,290,2014-01-06 17:35:00
12:55 PM,40.8,36.0,83,29.52,10.0,West,16.1,20.7,N/A,,Light Drizzle,280,2014-01-06 17:55:00
1:15 PM,40.5,35.4,82,29.52,10.0,West,12.7,17.3,N/A,,Light Drizzle,280,2014-01-06 18:15:00
1:35 PM,40.3,33.6,77,29.52,10.0,WNW,13.8,20.7,N/A,,Overcast,290,2014-01-06 18:35:00
1:55 PM,40.5,32.0,72,29.52,10.0,WNW,12.7,19.6,N/A,,Overcast,290,2014-01-06 18:55:00
2:15 PM,40.6,32.0,71,29.51,10.0,WNW,12.7,18.4,N/A,,Overcast,290,2014-01-06 19:15:00
2:35 PM,41.0,31.3,68,29.51,10.0,WNW,15.0,20.7,N/A,,Overcast,290,2014-01-06 19:35:00
2:55 PM,41.4,29.7,63,29.53,10.0,WNW,18.4,24.2,N/A,,Scattered Clouds,290,2014-01-06 19:55:00
3:15 PM,41.0,28.4,61,29.53,10.0,WNW,15.0,21.9,N/A,,Mostly Cloudy,290,2014-01-06 20:15:00
3:35 PM,41.7,27.7,58,29.53,10.0,WNW,18.4,28.8,N/A,,Mostly Cloudy,290,2014-01-06 20:35:00
3:55 PM,41.5,27.1,57,29.54,10.0,NW,20.7,27.6,N/A,,Mostly Cloudy,310,2014-01-06 20:55:00
4:15 PM,40.6,25.5,55,29.55,10.0,WNW,15.0,21.9,N/A,,Overcast,300,2014-01-06 21:15:00
4:35 PM,39.6,23.9,54,29.55,10.0,WNW,15.0,23.0,N/A,,Overcast,300,2014-01-06 21:35:00
4:55 PM,39.0,23.2,53,29.56,10.0,WNW,12.7,23.0,N/A,,Overcast,300,2014-01-06 21:55:00
5:15 PM,38.3,22.1,52,29.57,10.0,WNW,15.0,23.0,N/A,,Overcast,290,2014-01-06 22:15:00
5:35 PM,37.8,21.2,51,29.58,10.0,West,15.0,19.6,N/A,,Overcast,280,2014-01-06 22:35:00
5:55 PM,36.9,20.8,52,29.59,10.0,West,12.7,20.7,N/A,,Overcast,280,2014-01-06 22:55:00
6:15 PM,36.5,20.7,53,29.60,10.0,West,13.8,-,N/A,,Overcast,280,2014-01-06 23:15:00
6:35 PM,35.6,19.4,52,29.63,10.0,WNW,16.1,23.0,N/A,,Overcast,290,2014-01-06 23:35:00
6:55 PM,35.1,18.5,51,29.64,10.0,WNW,18.4,28.8,N/A,,Overcast,290,2014-01-06 23:55:00
7:15 PM,34.9,17.2,49,29.65,10.0,WNW,20.7,27.6,N/A,,Overcast,290,2014-01-07 00:15:00
7:35 PM,34.3,16.5,48,29.66,10.0,WNW,20.7,29.9,N/A,,Overcast,290,2014-01-07 00:35:00
7:55 PM,33.8,16.7,50,29.67,10.0,WNW,19.6,28.8,N/A,,Mostly Cloudy,290,2014-01-07 00:55:00
8:15 PM,32.5,14.9,48,29.68,10.0,WNW,19.6,31.1,N/A,,Scattered Clouds,290,2014-01-07 01:15:00
8:35 PM,32.0,13.3,46,29.68,10.0,West,16.1,28.8,N/A,,Scattered Clouds,280,2014-01-07 01:35:00
8:55 PM,31.5,12.0,45,29.70,10.0,WNW,21.9,27.6,N/A,,Clear,290,2014-01-07 01:55:00
9:15 PM,31.1,11.3,44,29.70,10.0,WNW,19.6,28.8,N/A,,Clear,290,2014-01-07 02:15:00
9:35 PM,30.7,12.7,47,29.70,10.0,WNW,17.3,26.5,N/A,,Clear,290,2014-01-07 02:35:00
9:55 PM,30.0,16.7,58,29.72,10.0,West,17.3,33.4,N/A,Snow,Light Snow,280,2014-01-07 02:55:00
10:15 PM,28.4,14.9,57,29.73,10.0,WNW,20.7,27.6,N/A,,Overcast,300,2014-01-07 03:15:00
10:35 PM,26.1,10.0,51,29.75,10.0,WNW,28.8,35.7,N/A,,Scattered Clouds,290,2014-01-07 03:35:00
10:55 PM,24.3,6.8,47,29.76,10.0,WNW,26.5,40.3,N/A,,Clear,290,2014-01-07 03:55:00
11:15 PM,22.1,3.6,45,29.77,10.0,WNW,23.0,34.5,N/A,,Clear,290,2014-01-07 04:15:00
11:35 PM,19.8,-1.5,39,29.78,10.0,WNW,29.9,36.8,N/A,,Clear,300,2014-01-07 04:35:00
11:55 PM,17.6,-6.3,34,29.80,10.0,WNW,29.9,43.7,N/A,,Clear,300,2014-01-07 04:55:00